[TLELIST] Archives

 

[list_settings.list_name] Current TLEs

March 8th 2010 PST

HST 1 20580U 90037B 10063.58635383 .00000494 00000-0 25066-4 0 5317 2 20580 028.4681 202.7003 0003608 173.2518 186.8077 15.00910894889025 ISS (ZARYA) 1 25544U 98067A 10064.68230324 .00015017 00000-0 10882-3 0 7083 2 25544 051.6472 041.9784 0007597 016.9317 319.1750 15.73655058647160 CXO 1 25867U 99040B 10063.25000000 -.00000247 00000-0 10000-3 0 4350 2 25867 066.6236 058.4754 7994520 275.2467 353.8754 00.37807142 5991 ____________________________________________________________________ These 2-Line ...Continue Reading

[list_settings.list_name] Current TLEs

March 7th 2010 PST

HST 1 20580U 90037B 10063.58635383 .00000494 00000-0 25066-4 0 5317 2 20580 028.4681 202.7003 0003608 173.2518 186.8077 15.00910894889025 ISS (ZARYA) 1 25544U 98067A 10064.39412176 .00014921 00000-0 10819-3 0 7058 2 25544 051.6473 043.4569 0007634 015.8318 126.5852 15.73645707647129 CXO 1 25867U 99040B 10063.25000000 -.00000247 00000-0 10000-3 0 4350 2 25867 066.6236 058.4754 7994520 275.2467 353.8754 00.37807142 5991 ____________________________________________________________________ These 2-Line ...Continue Reading

[list_settings.list_name] Current TLEs

March 6th 2010 PST

HST 1 20580U 90037B 10063.58635383 .00000494 00000-0 25066-4 0 5317 2 20580 028.4681 202.7003 0003608 173.2518 186.8077 15.00910894889025 ISS (ZARYA) 1 25544U 98067A 10063.73443287 .00014338 00000-0 10425-3 0 7013 2 25544 051.6466 046.8425 0007568 013.7289 348.9679 15.73622718647022 CXO 1 25867U 99040B 10063.25000000 -.00000247 00000-0 10000-3 0 4350 2 25867 066.6236 058.4754 7994520 275.2467 353.8754 00.37807142 5991 ____________________________________________________________________ These 2-Line ...Continue Reading

[list_settings.list_name] Current TLEs

March 5th 2010 PST

HST 1 20580U 90037B 10060.86004443 .00000542 00000-0 28712-4 0 5306 2 20580 028.4682 220.4931 0003565 143.9854 216.0970 15.00909457888617 ISS (ZARYA) 1 25544U 98067A 10063.37915313 .00014094 00000-0 10260-3 0 6988 2 25544 051.6465 048.6647 0007661 011.8053 136.8643 15.73611041646963 CXO 1 25867U 99040B 10063.25000000 -.00000247 00000-0 10000-3 0 4350 2 25867 066.6236 058.4754 7994520 275.2467 353.8754 00.37807142 5991 ____________________________________________________________________ These 2-Line ...Continue Reading

[list_settings.list_name] Current TLEs

March 4th 2010 PST

HST 1 20580U 90037B 10060.86004443 .00000542 00000-0 28712-4 0 5306 2 20580 028.4682 220.4931 0003565 143.9854 216.0970 15.00909457888617 ISS (ZARYA) 1 25544U 98067A 10061.96077551 .00013678 00000-0 99898-4 0 6874 2 25544 051.6472 055.9434 0007506 006.7069 021.5437 15.73568061646744 CXO 1 25867U 99040B 10063.25000000 -.00000247 00000-0 10000-3 0 4350 2 25867 066.6236 058.4754 7994520 275.2467 353.8754 00.37807142 5991 ____________________________________________________________________ These 2-Line ...Continue Reading

[list_settings.list_name] Current TLEs

March 3rd 2010 PST

HST 1 20580U 90037B 10060.86004443 .00000542 00000-0 28712-4 0 5306 2 20580 028.4682 220.4931 0003565 143.9854 216.0970 15.00909457888617 ISS (ZARYA) 1 25544U 98067A 10061.22453704 .00013851 00000-0 10119-3 0 6827 2 25544 051.6466 059.7216 0007390 003.8596 170.9351 15.73547683646629 CXO 1 25867U 99040B 10060.62500000 -.00000096 00000-0 10000-3 0 4344 2 25867 066.6097 058.6014 7989919 275.2423 356.4873 00.37807143 5986 ____________________________________________________________________ These 2-Line ...Continue Reading

[list_settings.list_name] Current TLEs

March 2nd 2010 PST

HST 1 20580U 90037B 10059.86261320 .00000555 00000-0 29734-4 0 5290 2 20580 028.4682 227.0025 0003562 133.1876 226.9015 15.00908821888463 ISS (ZARYA) 1 25544U 98067A 10060.39299677 .00014318 00000-0 10455-3 0 6766 2 25544 051.6464 063.9887 0007280 000.0341 141.1443 15.73525555646494 CXO 1 25867U 99040B 10060.62500000 -.00000096 00000-0 10000-3 0 4344 2 25867 066.6097 058.6014 7989919 275.2423 356.4873 00.37807143 5986 ____________________________________________________________________ These 2-Line ...Continue Reading

[list_settings.list_name] Current TLEs

March 1st 2010 PST

HST 1 20580U 90037B 10057.93424432 .00000567 00000-0 30675-4 0 5289 2 20580 028.4685 239.5875 0003554 112.4119 247.6860 15.00907413888170 ISS (ZARYA) 1 25544U 98067A 10059.37694542 .00014405 00000-0 10528-3 0 6704 2 25544 051.6456 069.2012 0007500 356.0314 145.7061 15.73495628646339 CXO 1 25867U 99040B 10 55.42467365 .00000000 00000-0 10000-3 0 4335 2 25867 066.5869 058.8742 7984256 275.2477 008.4617 00.37816555 5976 ____________________________________________________________________ These 2-Line ...Continue Reading

[list_settings.list_name] Current TLEs

February 28th 2010 PST

HST 1 20580U 90037B 10057.93424432 .00000567 00000-0 30675-4 0 5289 2 20580 028.4685 239.5875 0003554 112.4119 247.6860 15.00907413888170 ISS (ZARYA) 1 25544U 98067A 10058.42680069 .00014277 00000-0 10453-3 0 6623 2 25544 051.6456 074.0766 0007097 351.8718 164.1153 15.73466689646186 CXO 1 25867U 99040B 10 55.42467365 .00000000 00000-0 10000-3 0 4335 2 25867 066.5869 058.8742 7984256 275.2477 008.4617 00.37816555 5976 ____________________________________________________________________ These 2-Line ...Continue Reading

[list_settings.list_name] Current TLEs

February 27th 2010 PST

HST 1 20580U 90037B 10055.73988967 .00000618 00000-0 34576-4 0 5273 2 20580 028.4693 253.9101 0003699 086.8123 273.2854 15.00906071887840 ISS (ZARYA) 1 25544U 98067A 10057.40796700 .00013727 00000-0 10082-3 0 6548 2 25544 051.6458 079.3030 0007163 347.6657 153.3196 15.73434214646028 CXO 1 25867U 99040B 10 55.42467365 .00000000 00000-0 10000-3 0 4335 2 25867 066.5869 058.8742 7984256 275.2477 008.4617 00.37816555 5976 ____________________________________________________________________ These 2-Line ...Continue Reading
  • This mailing list is a public mailing list - anyone may join or leave, at any time.
  • This mailing list is announce-only.

International Space Station (ISS) / Hubble Space Telescope (HST) / Chandra X-Ray Observatory Orbital Data via EMAIL

Privacy Policy:

Private list